EST,Max TemperatureF,Mean TemperatureF,Min TemperatureF,Max Dew PointF,MeanDew PointF,Min DewpointF,Max Humidity, Mean Humidity, Min Humidity, Max Sea Level PressureIn, Mean Sea Level PressureIn, Min Sea Level PressureIn, Max VisibilityMiles, Mean VisibilityMiles, Min VisibilityMiles, Max Wind SpeedMPH, Mean Wind SpeedMPH, Max Gust SpeedMPH,PrecipitationIn, CloudCover, Events, WindDirDegrees
2013-2-1,30,24,17,23,11,0,69,53,36,30.40,30.07,29.83,10,7,1,30,14,40,0.01,6,Snow,288
2013-2-2,28,20,11,19,10,3,75,61,46,30.40,30.19,30.01,10,10,9,13,4,16,0.00,5,,178
2013-2-3,35,29,22,28,22,12,92,72,51,30.00,29.89,29.81,10,6,1,23,6,38,T,8,Snow,237
2013-2-4,37,31,24,28,17,9,92,65,37,30.09,29.98,29.88,10,8,2,25,6,33,T,7,Snow,253
2013-2-5,37,34,30,32,29,28,92,84,75,29.94,29.88,29.84,7,3,2,9,1,28,0.02,8,Rain-Snow,20
2013-2-6,40,33,26,30,25,18,89,70,50,30.35,30.17,29.94,10,9,2,18,5,23,0.00,6,,306
2013-2-7,39,31,22,25,21,17,81,65,48,30.43,30.34,30.21,10,9,5,10,3,14,0.00,5,,112
2013-2-8,41,37,33,36,29,19,85,70,54,30.17,29.92,29.80,10,8,2,29,8,41,0.03,8,Rain-Snow,326
2013-2-9,41,31,21,19,14,10,60,44,28,30.41,30.25,30.01,10,10,10,28,12,38,0.00,3,,318
2013-2-10,45,31,16,19,15,11,80,55,30,30.46,30.35,30.19,10,9,4,15,5,18,0.00,1,,152
2013-2-11,66,51,35,48,34,19,92,58,23,30.18,29.92,29.68,10,8,2,30,9,39,0.15,4,Rain,173
2013-2-12,55,46,36,27,23,17,54,40,26,30.00,29.93,29.85,10,10,10,30,12,40,0.00,2,,286
2013-2-13,42,36,29,32,28,23,96,73,49,29.95,29.78,29.68,10,6,1,12,3,16,0.11,6,Snow,360
2013-2-14,49,39,29,31,27,23,96,69,42,30.00,29.93,29.79,10,9,2,15,4,18,0.00,3,,234
2013-2-15,54,41,27,36,30,24,92,67,41,30.04,29.99,29.94,10,9,5,21,4,33,0.13,5,Rain,290
2013-2-16,37,33,28,29,21,12,85,63,41,30.00,29.95,29.89,10,10,9,16,8,21,0.00,5,,335
2013-2-17,30,26,22,13,8,4,60,47,34,30.22,30.01,29.88,10,10,10,29,15,37,T,4,,297
2013-2-18,44,30,16,15,8,3,56,40,24,30.38,30.25,30.11,10,10,10,17,5,23,0.00,0,,234
2013-2-19,54,39,23,38,25,15,82,60,37,30.07,29.88,29.67,10,9,2,32,10,41,0.05,4,Rain-Snow,242
2013-2-20,35,30,24,15,10,6,50,44,38,30.18,30.04,29.88,10,10,10,27,17,43,0.00,7,,291
2013-2-21,36,30,23,14,11,7,62,49,35,30.34,30.23,30.15,10,10,10,24,11,31,0.00,3,,305
2013-2-22,32,28,24,27,23,15,85,71,57,30.38,30.28,30.18,10,9,2,10,3,14,0.03,7,Rain,131
2013-2-23,47,40,32,37,33,27,92,81,70,30.17,29.97,29.84,10,6,4,7,2,9,0.00,7,,14
2013-2-24,49,40,31,37,26,14,92,63,34,30.14,29.95,29.83,10,8,3,24,10,30,0.00,5,,296
2013-2-25,47,35,23,21,18,17,75,53,31,30.23,30.19,30.14,10,10,8,10,3,13,0.00,1,,316
2013-2-26,40,32,24,37,31,18,92,80,68,30.21,29.94,29.66,10,5,2,16,5,23,0.86,6,Rain,49
2013-2-27,53,45,37,38,34,30,92,68,44,29.70,29.64,29.58,10,8,2,28,9,38,0.03,7,Rain,299
2013-2-28,44,39,34,32,27,24,69,59,49,29.74,29.68,29.65,10,10,10,22,11,30,0.00,7,,264